Hourly Weather Trinidad

Today, 13 July, Monday

Time Temperature Precipitation Wind Pressure Humidity
00:00 +3°C° 0 mm 3 mps 752 mmHg 64%
01:00 +3°C° 0 mm 3 mps 752 mmHg 66%
02:00 +3°C° 0 mm 3 mps 752 mmHg 68%
03:00 +3°C° 0 mm 3 mps 752 mmHg 69%
04:00 +3°C° 0 mm 3 mps 752 mmHg 71%
05:00 +3°C° 0 mm 3 mps 752 mmHg 72%
06:00 +3°C° 0 mm 3 mps 753 mmHg 74%
07:00 +4°C° 0 mm 3 mps 754 mmHg 75%
08:00 +4°C° 0 mm 3 mps 754 mmHg 77%
09:00 +6°C° 0 mm 4 mps 755 mmHg 70%
10:00 +7°C° 0 mm 5 mps 755 mmHg 64%
11:00 +9°C° 0 mm 5 mps 755 mmHg 57%
12:00 +9°C° 0 mm 6 mps 755 mmHg 55%
13:00 +9°C° 0 mm 6 mps 755 mmHg 52%
14:00 +9°C° 0 mm 6 mps 755 mmHg 49%
15:00 +8°C° 0 mm 5 mps 755 mmHg 54%
16:00 +6°C° 0 mm 4 mps 755 mmHg 58%
17:00 +4°C° 0 mm 3 mps 756 mmHg 62%
18:00 +3°C° 0 mm 3 mps 756 mmHg 63%
19:00 +3°C° 0 mm 3 mps 756 mmHg 64%
20:00 +3°C° 0 mm 2 mps 757 mmHg 65%
21:00 +2°C° 0 mm 2 mps 757 mmHg 65%
22:00 +2°C° 0 mm 2 mps 757 mmHg 66%
23:00 +2°C° 0 mm 2 mps 757 mmHg 66%

Tomorrow, 14 July, Tuesday

Time Temperature Precipitation Wind Pressure Humidity
00:00 +2°C° 0 mm 2 mps 757 mmHg 66%
01:00 +1°C° 0 mm 2 mps 757 mmHg 67%
02:00 +1°C° 0 mm 2 mps 757 mmHg 67%
03:00 +1°C° 0 mm 2 mps 757 mmHg 68%
04:00 0°C° 0 mm 3 mps 757 mmHg 69%
05:00 -1°C° 0 mm 3 mps 757 mmHg 70%
06:00 0°C° 0 mm 3 mps 758 mmHg 69%
07:00 0°C° 0 mm 3 mps 758 mmHg 69%
08:00 +1°C° 0 mm 3 mps 759 mmHg 68%
09:00 +3°C° 0 mm 3 mps 759 mmHg 63%
10:00 +5°C° 0 mm 3 mps 759 mmHg 57%
11:00 +7°C° 0 mm 4 mps 759 mmHg 52%
12:00 +9°C° 0 mm 3 mps 759 mmHg 51%
13:00 +9°C° 0 mm 3 mps 758 mmHg 51%
14:00 +10°C° 0 mm 3 mps 758 mmHg 50%
15:00 +8°C° 0 mm 2 mps 758 mmHg 55%
16:00 +7°C° 0 mm 2 mps 758 mmHg 60%
17:00 +6°C° 0 mm 1 mps 758 mmHg 65%
18:00 +5°C° 0 mm 1 mps 758 mmHg 67%
19:00 +4°C° 0 mm 1 mps 758 mmHg 69%
20:00 +4°C° 0 mm 1 mps 758 mmHg 70%
21:00 +3°C° 0 mm 1 mps 758 mmHg 71%
22:00 +3°C° 0 mm 1 mps 758 mmHg 71%
23:00 +3°C° 0 mm 1 mps 758 mmHg 71%

Day after tomorrow, 15 July, Wednesday

Time Temperature Precipitation Wind Pressure Humidity
00:00 +3°C° 0 mm 1 mps 758 mmHg 72%
01:00 +2°C° 0 mm 1 mps 758 mmHg 74%
02:00 +2°C° 0 mm 1 mps 758 mmHg 75%
03:00 +1°C° 0 mm 2 mps 757 mmHg 77%
04:00 +1°C° 0 mm 2 mps 757 mmHg 80%
05:00 -1°C° 0 mm 2 mps 757 mmHg 82%
06:00 +1°C° 0 mm 2 mps 757 mmHg 81%
07:00 +2°C° 0 mm 2 mps 758 mmHg 80%
08:00 +2°C° 0 mm 2 mps 758 mmHg 79%
09:00 +4°C° 0 mm 2 mps 758 mmHg 72%
10:00 +7°C° 0 mm 3 mps 758 mmHg 65%
11:00 +9°C° 0 mm 3 mps 758 mmHg 58%
12:00 +10°C° 0 mm 3 mps 757 mmHg 57%
13:00 +10°C° 0 mm 3 mps 756 mmHg 55%
14:00 +11°C° 0 mm 3 mps 756 mmHg 54%
15:00 +9°C° 0 mm 3 mps 755 mmHg 61%
16:00 +8°C° 0 mm 2 mps 755 mmHg 67%
17:00 +6°C° 0 mm 2 mps 755 mmHg 74%
18:00 +5°C° 0 mm 2 mps 755 mmHg 75%
19:00 +5°C° 0 mm 2 mps 755 mmHg 76%
20:00 +3°C° 0 mm 3 mps 755 mmHg 77%
21:00 +3°C° 0 mm 3 mps 756 mmHg 78%
22:00 +2°C° 0 mm 3 mps 756 mmHg 79%
23:00 +2°C° 0 mm 3 mps 756 mmHg 80%

16 July, Thursday

Time Temperature Precipitation Wind Pressure Humidity
00:00 +2°C° 0 mm 3 mps 755 mmHg 82%
01:00 +2°C° 0 mm 3 mps 755 mmHg 85%
02:00 +1°C° 0 mm 3 mps 755 mmHg 88%
03:00 +1°C° 0 mm 3 mps 755 mmHg 89%
04:00 +2°C° 0 mm 2 mps 754 mmHg 90%
05:00 +2°C° 0 mm 2 mps 754 mmHg 92%
06:00 +2°C° 0 mm 2 mps 755 mmHg 90%
07:00 +3°C° 0 mm 2 mps 755 mmHg 88%
08:00 +3°C° 0 mm 2 mps 755 mmHg 86%
09:00 +6°C° 0 mm 2 mps 755 mmHg 79%
10:00 +8°C° 0 mm 2 mps 755 mmHg 72%
11:00 +10°C° 0 mm 2 mps 755 mmHg 65%
12:00 +11°C° 0 mm 3 mps 754 mmHg 63%
13:00 +12°C° 0 mm 3 mps 754 mmHg 61%
14:00 +13°C° 0 mm 3 mps 753 mmHg 60%
15:00 +12°C° 0 mm 3 mps 753 mmHg 67%
16:00 +10°C° 0 mm 2 mps 753 mmHg 75%
17:00 +9°C° 0 mm 2 mps 753 mmHg 82%
18:00 +8°C° 0 mm 3 mps 753 mmHg 85%
19:00 +7°C° 0 mm 3 mps 754 mmHg 88%
20:00 +6°C° 0 mm 4 mps 754 mmHg 91%
21:00 +6°C° 0 mm 4 mps 754 mmHg 92%
22:00 +6°C° 0 mm 4 mps 753 mmHg 94%
23:00 +6°C° 0 mm 4 mps 753 mmHg 95%

17 July, Friday

Time Temperature Precipitation Wind Pressure Humidity
00:00 +6°C° 0 mm 4 mps 753 mmHg 96%
01:00 +6°C° 0 mm 4 mps 753 mmHg 96%
02:00 +5°C° 0 mm 3 mps 752 mmHg 96%
03:00 +5°C° 0 mm 3 mps 752 mmHg 97%
04:00 +5°C° 0 mm 3 mps 752 mmHg 97%
05:00 +5°C° 0 mm 3 mps 752 mmHg 98%
06:00 +6°C° 0 mm 4 mps 752 mmHg 97%
07:00 +8°C° 0 mm 5 mps 752 mmHg 97%
08:00 +9°C° 0 mm 6 mps 752 mmHg 97%
09:00 +10°C° 0 mm 6 mps 752 mmHg 96%
10:00 +10°C° 0 mm 6 mps 751 mmHg 95%
11:00 +11°C° 0 mm 6 mps 751 mmHg 94%
12:00 +13°C° 0 mm 6 mps 750 mmHg 93%
13:00 +13°C° 0 mm 6 mps 750 mmHg 92%
14:00 +14°C° 0 mm 6 mps 749 mmHg 91%
15:00 +14°C° 0.2 mm 5 mps 749 mmHg 93%
16:00 +14°C° 0.2 mm 5 mps 748 mmHg 95%
17:00 +14°C° 0.2 mm 4 mps 748 mmHg 96%
18:00 +14°C° 0 mm 4 mps 748 mmHg 97%
19:00 +14°C° 0 mm 4 mps 748 mmHg 97%
20:00 +14°C° 0 mm 4 mps 748 mmHg 97%
21:00 +14°C° 0.3 mm 3 mps 748 mmHg 97%
22:00 +16°C° 0.3 mm 3 mps 748 mmHg 97%
23:00 +16°C° 0.3 mm 2 mps 748 mmHg 98%

18 July, Saturday

Time Temperature Precipitation Wind Pressure Humidity
00:00 +16°C° 0.5 mm 2 mps 748 mmHg 98%
01:00 +16°C° 0.5 mm 2 mps 748 mmHg 98%
02:00 +15°C° 0.5 mm 2 mps 748 mmHg 98%
03:00 +16°C° 0.4 mm 2 mps 748 mmHg 98%
04:00 +16°C° 0.4 mm 2 mps 748 mmHg 98%
05:00 +16°C° 0.4 mm 1 mps 748 mmHg 98%
06:00 +16°C° 0 mm 1 mps 748 mmHg 98%
07:00 +16°C° 0 mm 1 mps 749 mmHg 98%
08:00 +16°C° 0 mm 1 mps 749 mmHg 98%
09:00 +17°C° 0.2 mm 2 mps 749 mmHg 96%
10:00 +17°C° 0.2 mm 2 mps 749 mmHg 94%
11:00 +18°C° 0.2 mm 3 mps 749 mmHg 93%
12:00 +18°C° 0.7 mm 3 mps 749 mmHg 93%
13:00 +18°C° 0.7 mm 2 mps 749 mmHg 93%
14:00 +18°C° 0.7 mm 2 mps 749 mmHg 93%
15:00 +17°C° 0.7 mm 3 mps 749 mmHg 94%
16:00 +17°C° 0.7 mm 3 mps 749 mmHg 95%
17:00 +15°C° 0.7 mm 4 mps 749 mmHg 96%
18:00 +14°C° 0.4 mm 4 mps 750 mmHg 96%
19:00 +14°C° 0.4 mm 4 mps 750 mmHg 95%
20:00 +13°C° 0.4 mm 4 mps 750 mmHg 95%
21:00 +13°C° 0.7 mm 4 mps 751 mmHg 95%
22:00 +12°C° 0.7 mm 4 mps 751 mmHg 94%
23:00 +12°C° 0.7 mm 5 mps 751 mmHg 94%
Show more